| time (UTC) | temp F | wind direction | speed MPH | gust MPH | rain 1hr in | rain 24hr in | rain mn in | humidity % | barometer mb |
| 20260507033020 | 46 | 141 | 0.0 | 2.0 | 0.00 | 0.00 | 0.00 | 44 | 1013.1 |
| 20260507032506 | 46 | 141 | 0.0 | 2.0 | 0.00 | 0.00 | 0.00 | 43 | 1013.1 |
| 20260507032003 | 46 | 171 | 0.0 | 2.0 | 0.00 | 0.00 | 0.00 | 41 | 1013.1 |
| 20260507031528 | 46 | 263 | 0.0 | 2.0 | 0.00 | 0.00 | 0.00 | 43 | 1013.1 |
| 20260507031006 | 46 | 263 | 1.0 | 2.0 | 0.00 | 0.00 | 0.00 | 42 | 1013.2 |
| 20260507030504 | 47 | 235 | 0.0 | 3.0 | 0.00 | 0.00 | 0.00 | 42 | 1013.2 |
| 20260507030018 | 47 | 101 | 2.0 | 3.0 | 0.00 | 0.00 | 0.00 | 40 | 1013.3 |
| 20260507025508 | 47 | 117 | 2.0 | 3.0 | 0.00 | 0.00 | 0.00 | 40 | 1013.3 |
| 20260507025008 | 47 | 74 | 2.0 | 2.0 | 0.00 | 0.00 | 0.00 | 39 | 1013.4 |
| 20260507024520 | 47 | 93 | 1.0 | 2.0 | 0.00 | 0.00 | 0.00 | 38 | 1013.2 |
| 20260507024006 | 47 | 78 | 1.0 | 3.0 | 0.00 | 0.00 | 0.00 | 39 | 1013.2 |
| 20260507023505 | 46 | 40 | 2.0 | 8.0 | 0.00 | 0.00 | 0.00 | 40 | 1013.3 |
| 20260507023019 | 46 | 22 | 5.0 | 8.0 | 0.00 | 0.00 | 0.00 | 42 | 1013.3 |
| 20260507022507 | 47 | 348 | 3.0 | 4.0 | 0.00 | 0.00 | 0.00 | 40 | 1013.3 |
| 20260507022005 | 47 | 348 | 1.0 | 3.0 | 0.00 | 0.00 | 0.00 | 38 | 1013.2 |
| 20260507021535 | 48 | 325 | 2.0 | 3.0 | 0.00 | 0.00 | 0.00 | 36 | 1013.2 |
| 20260507021007 | 48 | 290 | 2.0 | 3.0 | 0.00 | 0.00 | 0.00 | 37 | 1013.2 |
| 20260507020505 | 47 | 315 | 0.0 | 3.0 | 0.00 | 0.00 | 0.00 | 37 | 1013.2 |
| 20260507020025 | 47 | 323 | 2.0 | 6.0 | 0.00 | 0.00 | 0.00 | 38 | 1013.2 |
| 20260507015506 | 47 | 341 | 2.0 | 6.0 | 0.00 | 0.00 | 0.00 | 37 | 1013.3 |
| 20260507015004 | 48 | 273 | 4.0 | 6.0 | 0.00 | 0.00 | 0.00 | 36 | 1013.3 |
| 20260507014524 | 48 | 270 | 3.0 | 6.0 | 0.00 | 0.00 | 0.00 | 36 | 1013.2 |
| 20260507014010 | 49 | 299 | 3.0 | 7.0 | 0.00 | 0.00 | 0.00 | 36 | 1013.2 |
| 20260507013505 | 49 | 304 | 2.0 | 8.0 | 0.00 | 0.00 | 0.00 | 36 | 1013.2 |
| 20260507013030 | 49 | 288 | 3.0 | 8.0 | 0.00 | 0.00 | 0.00 | 36 | 1013.2 |
| 20260507012507 | 49 | 299 | 4.0 | 6.0 | 0.00 | 0.00 | 0.00 | 36 | 1013.2 |
| 20260507012007 | 50 | 291 | 3.0 | 6.0 | 0.00 | 0.00 | 0.00 | 35 | 1013.2 |
| 20260507011529 | 50 | 291 | 3.0 | 6.0 | 0.00 | 0.00 | 0.00 | 35 | 1013.1 |
| 20260507011008 | 50 | 306 | 2.0 | 7.0 | 0.00 | 0.00 | 0.00 | 35 | 1013.1 |
| 20260507010510 | 50 | 286 | 3.0 | 9.0 | 0.00 | 0.00 | 0.00 | 34 | 1013.1 |
| 20260507010037 | 51 | 298 | 4.0 | 9.0 | 0.00 | 0.00 | 0.00 | 34 | 1013.0 |
| 20260507005507 | 51 | 284 | 4.0 | 9.0 | 0.00 | 0.00 | 0.00 | 33 | 1013.1 |
| 20260507005012 | 51 | 285 | 4.0 | 13.0 | 0.00 | 0.00 | 0.00 | 33 | 1013.1 |
| 20260507004525 | 51 | 281 | 6.0 | 13.0 | 0.00 | 0.00 | 0.00 | 33 | 1013.1 |
| 20260507004006 | 51 | 281 | 6.0 | 15.0 | 0.00 | 0.00 | 0.00 | 32 | 1013.2 |
| 20260507003507 | 52 | 298 | 6.0 | 15.0 | 0.00 | 0.00 | 0.00 | 31 | 1013.2 |
| 20260507003022 | 52 | 281 | 8.0 | 16.0 | 0.00 | 0.00 | 0.00 | 30 | 1013.2 |
| 20260507002506 | 53 | 307 | 7.0 | 17.0 | 0.00 | 0.00 | 0.00 | 31 | 1013.3 |
| 20260507002002 | 53 | 302 | 9.0 | 17.0 | 0.00 | 0.00 | 0.00 | 30 | 1013.2 |
| 20260507001504 | 53 | 360 | 9.0 | 17.0 | 0.00 | 0.00 | 0.00 | 31 | 1013.3 |
| 20260507001004 | 53 | 323 | 9.0 | 17.0 | 0.00 | 0.00 | 0.00 | 30 | 1013.3 |
| 20260507000503 | 54 | 268 | 9.0 | 21.0 | 0.00 | 0.00 | 0.00 | 30 | 1013.3 |
| 20260507000006 | 54 | 302 | 13.0 | 21.0 | 0.00 | 0.00 | 0.00 | 29 | 1013.4 |
| 20260506235506 | 54 | 307 | 12.0 | 18.0 | 0.00 | 0.00 | 0.00 | 30 | 1013.4 |
| 20260506235002 | 53 | 298 | 9.0 | 15.0 | 0.00 | 0.00 | 0.00 | 31 | 1013.2 |
| 20260506234508 | 53 | 306 | 8.0 | 18.0 | 0.00 | 0.00 | 0.00 | 31 | 1013.4 |
| 20260506234006 | 52 | 302 | 9.0 | 18.0 | 0.00 | 0.00 | 0.00 | 31 | 1013.4 |
| 20260506233503 | 53 | 308 | 11.0 | 18.0 | 0.00 | 0.00 | 0.00 | 31 | 1013.4 |
| 20260506233008 | 53 | 360 | 8.0 | 17.0 | 0.00 | 0.00 | 0.00 | 32 | 1013.5 |
| 20260506232506 | 53 | 345 | 6.0 | 20.0 | 0.00 | 0.00 | 0.00 | 33 | 1013.4 |
| 20260506232002 | 53 | 237 | 8.0 | 22.0 | 0.00 | 0.00 | 0.00 | 32 | 1013.6 |
| 20260506231508 | 53 | 322 | 11.0 | 22.0 | 0.00 | 0.00 | 0.00 | 32 | 1013.5 |
| 20260506231007 | 53 | 265 | 12.0 | 20.0 | 0.00 | 0.00 | 0.00 | 32 | 1013.6 |
| 20260506230504 | 53 | 360 | 6.0 | 17.0 | 0.00 | 0.00 | 0.00 | 33 | 1013.5 |
| 20260506230011 | 53 | 307 | 9.0 | 17.0 | 0.00 | 0.00 | 0.00 | 32 | 1013.6 |
| 20260506225511 | 53 | 326 | 6.0 | 16.0 | 0.00 | 0.00 | 0.00 | 33 | 1013.6 |
| 20260506225002 | 54 | 297 | 7.0 | 15.0 | 0.00 | 0.00 | 0.00 | 33 | 1013.6 |
| 20260506224510 | 53 | 351 | 9.0 | 14.0 | 0.00 | 0.00 | 0.00 | 34 | 1013.8 |
| 20260506224006 | 52 | 299 | 8.0 | 13.0 | 0.00 | 0.00 | 0.00 | 33 | 1013.7 |
| 20260506223501 | 52 | 312 | 8.0 | 14.0 | 0.00 | 0.00 | 0.00 | 33 | 1013.9 |
| 20260506223017 | 52 | 323 | 8.0 | 14.0 | 0.00 | 0.00 | 0.00 | 34 | 1013.9 |
| 20260506222506 | 53 | 14 | 6.0 | 12.0 | 0.00 | 0.00 | 0.00 | 34 | 1013.9 |
| 20260506222006 | 52 | 333 | 7.0 | 12.0 | 0.00 | 0.00 | 0.00 | 36 | 1014.0 |
| 20260506221516 | 52 | 262 | 4.0 | 12.0 | 0.00 | 0.00 | 0.00 | 35 | 1014.0 |
| 20260506221009 | 52 | 280 | 9.0 | 12.0 | 0.00 | 0.00 | 0.00 | 34 | 1014.1 |
| 20260506220503 | 52 | 309 | 6.0 | 19.0 | 0.00 | 0.00 | 0.00 | 34 | 1014.1 |
| 20260506220022 | 53 | 300 | 9.0 | 19.0 | 0.00 | 0.00 | 0.00 | 33 | 1014.1 |
| 20260506215506 | 52 | 360 | 11.0 | 19.0 | 0.00 | 0.00 | 0.00 | 35 | 1014.2 |
| 20260506215006 | 52 | 338 | 9.0 | 19.0 | 0.00 | 0.00 | 0.00 | 35 | 1014.2 |
| 20260506214518 | 52 | 285 | 9.0 | 16.0 | 0.00 | 0.00 | 0.00 | 36 | 1014.3 |
| 20260506214008 | 51 | 360 | 5.0 | 12.0 | 0.00 | 0.00 | 0.00 | 36 | 1014.3 |
| 20260506213503 | 52 | 322 | 8.0 | 12.0 | 0.00 | 0.00 | 0.00 | 34 | 1014.4 |
| 20260506213027 | 51 | 317 | 7.0 | 13.0 | 0.00 | 0.00 | 0.00 | 35 | 1014.5 |
| 20260506212502 | 52 | 305 | 6.0 | 19.0 | 0.00 | 0.00 | 0.00 | 37 | 1014.5 |
| 20260506212006 | 51 | 298 | 12.0 | 19.0 | 0.00 | 0.00 | 0.00 | 35 | 1014.6 |
| 20260506211521 | 52 | 345 | 9.0 | 20.0 | 0.00 | 0.00 | 0.00 | 35 | 1014.7 |
| 20260506211003 | 52 | 337 | 7.0 | 20.0 | 0.00 | 0.00 | 0.00 | 36 | 1014.8 |
| 20260506210503 | 52 | 360 | 8.0 | 16.0 | 0.00 | 0.00 | 0.00 | 36 | 1014.8 |
| 20260506210028 | 51 | 267 | 9.0 | 20.0 | 0.00 | 0.00 | 0.00 | 37 | 1014.7 |
| 20260506205502 | 51 | 360 | 13.0 | 20.0 | 0.00 | 0.00 | 0.00 | 35 | 1014.8 |
| 20260506205006 | 51 | 311 | 7.0 | 19.0 | 0.00 | 0.00 | 0.00 | 36 | 1014.9 |
| 20260506204531 | 51 | 303 | 5.0 | 20.0 | 0.00 | 0.00 | 0.00 | 36 | 1014.9 |
| 20260506204002 | 51 | 269 | 15.0 | 20.0 | 0.00 | 0.00 | 0.00 | 36 | 1015.0 |
| 20260506203508 | 51 | 313 | 6.0 | 22.0 | 0.00 | 0.00 | 0.00 | 37 | 1015.1 |
| 20260506203027 | 51 | 295 | 10.0 | 22.0 | 0.00 | 0.00 | 0.00 | 36 | 1015.1 |
| 20260506202502 | 51 | 283 | 12.0 | 19.0 | 0.00 | 0.00 | 0.00 | 38 | 1015.1 |
| 20260506202005 | 51 | 284 | 9.0 | 19.0 | 0.00 | 0.00 | 0.00 | 37 | 1015.2 |
| 20260506201527 | 50 | 329 | 6.0 | 18.0 | 0.00 | 0.00 | 0.00 | 39 | 1015.3 |
| 20260506201004 | 50 | 347 | 9.0 | 20.0 | 0.00 | 0.00 | 0.00 | 37 | 1015.4 |
| 20260506200505 | 50 | 290 | 13.0 | 20.0 | 0.00 | 0.00 | 0.00 | 36 | 1015.4 |
| 20260506200025 | 51 | 300 | 8.0 | 20.0 | 0.00 | 0.00 | 0.00 | 35 | 1015.5 |
| 20260506195503 | 51 | 282 | 12.0 | 20.0 | 0.00 | 0.00 | 0.00 | 37 | 1015.7 |
| 20260506195006 | 52 | 311 | 11.0 | 18.0 | 0.00 | 0.00 | 0.00 | 36 | 1015.7 |
| 20260506194527 | 52 | 315 | 9.0 | 17.0 | 0.00 | 0.00 | 0.00 | 36 | 1015.5 |
| 20260506194002 | 52 | 286 | 9.0 | 18.0 | 0.00 | 0.00 | 0.00 | 36 | 1015.5 |
| 20260506193505 | 51 | 262 | 11.0 | 16.0 | 0.00 | 0.00 | 0.00 | 37 | 1015.6 |
| 20260506193026 | 50 | 284 | 8.0 | 18.0 | 0.00 | 0.00 | 0.00 | 37 | 1015.7 |
| 20260506192503 | 50 | 321 | 10.0 | 18.0 | 0.00 | 0.00 | 0.00 | 37 | 1015.7 |
| 20260506192009 | 49 | 329 | 11.0 | 17.0 | 0.00 | 0.00 | 0.00 | 40 | 1015.8 |
| 20260506191528 | 50 | 360 | 11.0 | 18.0 | 0.00 | 0.00 | 0.00 | 39 | 1015.8 |
| 20260506191003 | 50 | 318 | 7.0 | 21.0 | 0.00 | 0.00 | 0.00 | 41 | 1015.9 |
| 20260506190508 | 49 | 311 | 12.0 | 24.0 | 0.00 | 0.00 | 0.00 | 39 | 1015.9 |
| 20260506190028 | 49 | 9 | 12.0 | 24.0 | 0.00 | 0.00 | 0.00 | 39 | 1015.9 |
| 20260506185505 | 49 | 304 | 11.0 | 18.0 | 0.00 | 0.00 | 0.00 | 41 | 1016.0 |
| 20260506185011 | 49 | 317 | 9.0 | 19.0 | 0.00 | 0.00 | 0.00 | 39 | 1015.9 |
| 20260506184528 | 49 | 294 | 9.0 | 19.0 | 0.00 | 0.00 | 0.00 | 39 | 1015.9 |
| 20260506184005 | 49 | 311 | 9.0 | 19.0 | 0.00 | 0.00 | 0.00 | 39 | 1015.9 |
| 20260506183508 | 49 | 360 | 11.0 | 21.0 | 0.00 | 0.00 | 0.00 | 38 | 1016.0 |
| 20260506183006 | 49 | 312 | 12.0 | 20.0 | 0.00 | 0.00 | 0.00 | 39 | 1016.0 |
| 20260506182506 | 49 | 360 | 7.0 | 20.0 | 0.00 | 0.00 | 0.00 | 41 | 1016.2 |
| 20260506182010 | 48 | 351 | 11.0 | 21.0 | 0.00 | 0.00 | 0.00 | 40 | 1016.2 |
| 20260506181513 | 49 | 336 | 7.0 | 21.0 | 0.00 | 0.00 | 0.00 | 40 | 1016.2 |
| 20260506181006 | 48 | 275 | 10.0 | 18.0 | 0.00 | 0.00 | 0.00 | 40 | 1016.3 |
| 20260506180510 | 48 | 360 | 5.0 | 18.0 | 0.00 | 0.00 | 0.00 | 41 | 1016.4 |
| 20260506180015 | 48 | 305 | 10.0 | 23.0 | 0.00 | 0.00 | 0.00 | 40 | 1016.4 |
| 20260506175506 | 47 | 328 | 12.0 | 22.0 | 0.00 | 0.00 | 0.00 | 41 | 1016.5 |
| 20260506175007 | 47 | 360 | 9.0 | 22.0 | 0.00 | 0.00 | 0.00 | 39 | 1016.4 |
| 20260506174514 | 47 | 360 | 12.0 | 23.0 | 0.00 | 0.00 | 0.00 | 40 | 1016.5 |
| 20260506174008 | 47 | 339 | 14.0 | 23.0 | 0.00 | 0.00 | 0.00 | 40 | 1016.5 |
| 20260506173510 | 47 | 312 | 11.0 | 20.0 | 0.00 | 0.00 | 0.00 | 38 | 1016.5 |
| 20260506173014 | 47 | 311 | 6.0 | 20.0 | 0.00 | 0.00 | 0.00 | 41 | 1016.5 |
| 20260506172507 | 47 | 360 | 10.0 | 20.0 | 0.00 | 0.00 | 0.00 | 39 | 1016.5 |
| 20260506172009 | 46 | 350 | 9.0 | 20.0 | 0.00 | 0.00 | 0.00 | 41 | 1016.5 |
| 20260506171525 | 47 | 319 | 14.0 | 20.0 | 0.00 | 0.00 | 0.00 | 39 | 1016.7 |
| 20260506171007 | 47 | 328 | 11.0 | 20.0 | 0.00 | 0.00 | 0.00 | 39 | 1016.6 |
| 20260506170507 | 47 | 352 | 10.0 | 25.0 | 0.00 | 0.00 | 0.00 | 41 | 1016.5 |
| 20260506170014 | 46 | 360 | 12.0 | 25.0 | 0.00 | 0.00 | 0.00 | 39 | 1016.5 |
| 20260506165508 | 46 | 15 | 9.0 | 21.0 | 0.00 | 0.00 | 0.00 | 41 | 1016.5 |
| 20260506165010 | 45 | 300 | 7.0 | 22.0 | 0.00 | 0.00 | 0.00 | 42 | 1016.5 |
| 20260506164520 | 45 | 360 | 14.0 | 22.0 | 0.00 | 0.00 | 0.00 | 41 | 1016.6 |
| 20260506164013 | 45 | 273 | 11.0 | 19.0 | 0.00 | 0.00 | 0.00 | 43 | 1016.6 |
| 20260506163513 | 45 | 319 | 9.0 | 22.0 | 0.00 | 0.00 | 0.00 | 42 | 1016.7 |
| 20260506163018 | 45 | 329 | 9.0 | 22.0 | 0.00 | 0.00 | 0.00 | 42 | 1016.7 |
| 20260506162508 | 45 | 311 | 11.0 | 19.0 | 0.00 | 0.00 | 0.00 | 42 | 1016.8 |
| 20260506162010 | 45 | 360 | 8.0 | 20.0 | 0.00 | 0.00 | 0.00 | 45 | 1016.7 |
| 20260506161522 | 44 | 360 | 10.0 | 20.0 | 0.00 | 0.00 | 0.00 | 43 | 1016.6 |
| 20260506161007 | 45 | 350 | 8.0 | 18.0 | 0.00 | 0.00 | 0.00 | 44 | 1016.6 |
| 20260506160513 | 46 | 321 | 7.0 | 16.0 | 0.00 | 0.00 | 0.00 | 43 | 1016.6 |
| 20260506160031 | 46 | 360 | 10.0 | 16.0 | 0.00 | 0.00 | 0.00 | 44 | 1016.6 |
| 20260506155507 | 45 | 9 | 10.0 | 21.0 | 0.00 | 0.00 | 0.00 | 44 | 1016.5 |
| 20260506155007 | 46 | 268 | 8.0 | 21.0 | 0.00 | 0.00 | 0.00 | 44 | 1016.6 |
| 20260506154522 | 45 | 360 | 11.0 | 19.0 | 0.00 | 0.00 | 0.00 | 44 | 1016.6 |
| 20260506154011 | 44 | 298 | 9.0 | 19.0 | 0.00 | 0.00 | 0.00 | 45 | 1016.6 |
| 20260506153502 | 44 | 360 | 11.0 | 19.0 | 0.00 | 0.00 | 0.00 | 44 | 1016.6 |
| 20260506153020 | 44 | 258 | 9.0 | 16.0 | 0.00 | 0.00 | 0.00 | 44 | 1016.5 |
| 20260506152508 | 44 | 298 | 9.0 | 17.0 | 0.00 | 0.00 | 0.00 | 46 | 1016.6 |
| 20260506152007 | 44 | 331 | 5.0 | 19.0 | 0.00 | 0.00 | 0.00 | 46 | 1016.6 |
| 20260506151504 | 44 | 317 | 9.0 | 19.0 | 0.00 | 0.00 | 0.00 | 46 | 1016.5 |
| 20260506151004 | 43 | 315 | 7.0 | 15.0 | 0.00 | 0.00 | 0.00 | 46 | 1016.5 |
| 20260506150506 | 44 | 232 | 6.0 | 16.0 | 0.00 | 0.00 | 0.00 | 46 | 1016.6 |
| 20260506150007 | 43 | 311 | 7.0 | 16.0 | 0.00 | 0.00 | 0.00 | 48 | 1016.6 |
| 20260506145504 | 43 | 298 | 7.0 | 15.0 | 0.00 | 0.00 | 0.00 | 48 | 1016.6 |
| 20260506145005 | 43 | 324 | 9.0 | 14.0 | 0.00 | 0.00 | 0.00 | 48 | 1016.6 |
| 20260506144505 | 43 | 313 | 6.0 | 14.0 | 0.00 | 0.00 | 0.00 | 47 | 1016.5 |
| 20260506144009 | 43 | 360 | 9.0 | 14.0 | 0.00 | 0.00 | 0.00 | 48 | 1016.5 |
| 20260506143506 | 44 | 319 | 8.0 | 14.0 | 0.00 | 0.00 | 0.00 | 48 | 1016.6 |
| 20260506143012 | 44 | 324 | 9.0 | 14.0 | 0.00 | 0.00 | 0.00 | 48 | 1016.5 |
| 20260506142503 | 44 | 332 | 9.0 | 14.0 | 0.00 | 0.00 | 0.00 | 51 | 1016.4 |
| 20260506142007 | 44 | 360 | 5.0 | 14.0 | 0.00 | 0.00 | 0.00 | 51 | 1016.5 |
| 20260506141509 | 43 | 343 | 6.0 | 14.0 | 0.00 | 0.00 | 0.00 | 51 | 1016.5 |
| 20260506141004 | 43 | 346 | 8.0 | 14.0 | 0.00 | 0.00 | 0.00 | 53 | 1016.4 |
| 20260506140506 | 43 | 343 | 5.0 | 11.0 | 0.00 | 0.00 | 0.00 | 54 | 1016.4 |
| 20260506140010 | 42 | 360 | 8.0 | 11.0 | 0.00 | 0.00 | 0.00 | 54 | 1016.4 |
| 20260506135506 | 42 | 309 | 5.0 | 10.0 | 0.00 | 0.00 | 0.00 | 54 | 1016.4 |
| 20260506135007 | 42 | 327 | 5.0 | 8.0 | 0.00 | 0.00 | 0.00 | 54 | 1016.4 |
| 20260506134505 | 41 | 295 | 4.0 | 8.0 | 0.00 | 0.00 | 0.00 | 54 | 1016.3 |
| 20260506134006 | 41 | 360 | 3.0 | 8.0 | 0.00 | 0.00 | 0.00 | 58 | 1016.3 |
| 20260506133509 | 40 | 315 | 3.0 | 7.0 | 0.00 | 0.00 | 0.00 | 60 | 1016.3 |
| 20260506133007 | 39 | 313 | 3.0 | 7.0 | 0.00 | 0.00 | 0.00 | 61 | 1016.3 |
| 20260506132509 | 38 | 312 | 3.0 | 4.0 | 0.00 | 0.00 | 0.00 | 65 | 1016.3 |
| 20260506132008 | 37 | 313 | 3.0 | 4.0 | 0.00 | 0.00 | 0.00 | 66 | 1016.4 |
| 20260506131515 | 36 | 306 | 2.0 | 5.0 | 0.00 | 0.00 | 0.00 | 65 | 1016.3 |
| 20260506131006 | 37 | 311 | 3.0 | 5.0 | 0.00 | 0.00 | 0.00 | 64 | 1016.2 |
| 20260506130507 | 37 | 299 | 3.0 | 5.0 | 0.00 | 0.00 | 0.00 | 65 | 1016.3 |
| 20260506130012 | 35 | 338 | 1.0 | 3.0 | 0.00 | 0.00 | 0.00 | 68 | 1016.2 |
| 20260506125505 | 34 | 323 | 0.0 | 3.0 | 0.00 | 0.00 | 0.00 | 69 | 1016.3 |
| 20260506125011 | 33 | 282 | 2.0 | 6.0 | 0.00 | 0.00 | 0.00 | 70 | 1016.2 |
| 20260506124511 | 32 | 309 | 3.0 | 6.0 | 0.00 | 0.00 | 0.00 | 71 | 1016.2 |
| 20260506124005 | 32 | 315 | 2.0 | 6.0 | 0.00 | 0.00 | 0.00 | 71 | 1016.2 |
| 20260506123503 | 31 | 294 | 2.0 | 6.0 | 0.00 | 0.00 | 0.00 | 71 | 1016.1 |
| 20260506123012 | 31 | 272 | 4.0 | 6.0 | 0.00 | 0.00 | 0.00 | 70 | 1016.0 |
| 20260506122507 | 31 | 267 | 2.0 | 4.0 | 0.00 | 0.00 | 0.00 | 70 | 1015.9 |
| 20260506122004 | 31 | 236 | 3.0 | 4.0 | 0.00 | 0.00 | 0.00 | 70 | 1015.9 |
| 20260506121515 | 31 | 234 | 2.0 | 3.0 | 0.00 | 0.00 | 0.00 | 71 | 1015.9 |
| 20260506121006 | 31 | 246 | 2.0 | 4.0 | 0.00 | 0.00 | 0.00 | 71 | 1015.7 |
| 20260506120507 | 31 | 245 | 3.0 | 4.0 | 0.00 | 0.00 | 0.00 | 71 | 1015.5 |
| 20260506120016 | 32 | 259 | 2.0 | 2.0 | 0.00 | 0.00 | 0.00 | 71 | 1015.5 |
| 20260506115508 | 32 | 262 | 1.0 | 3.0 | 0.00 | 0.00 | 0.00 | 71 | 1015.5 |
| 20260506115002 | 32 | 286 | 2.0 | 4.0 | 0.00 | 0.00 | 0.00 | 70 | 1015.5 |
| 20260506114520 | 32 | 279 | 1.0 | 4.0 | 0.00 | 0.00 | 0.00 | 71 | 1015.5 |
| 20260506114008 | 32 | 296 | 2.0 | 4.0 | 0.00 | 0.00 | 0.00 | 72 | 1015.6 |
| 20260506113502 | 32 | 292 | 2.0 | 4.0 | 0.00 | 0.00 | 0.00 | 72 | 1015.4 |
| 20260506113019 | 32 | 291 | 2.0 | 2.0 | 0.00 | 0.00 | 0.00 | 72 | 1015.1 |
| 20260506112507 | 32 | 263 | 1.0 | 2.0 | 0.00 | 0.00 | 0.00 | 72 | 1015.0 |
| 20260506112003 | 31 | 300 | 1.0 | 2.0 | 0.00 | 0.00 | 0.00 | 72 | 1015.0 |
| 20260506111520 | 31 | 300 | 1.0 | 2.0 | 0.00 | 0.00 | 0.00 | 72 | 1015.0 |
| 20260506111007 | 31 | 313 | 1.0 | 2.0 | 0.00 | 0.00 | 0.00 | 72 | 1015.0 |
| 20260506110506 | 31 | 306 | 1.0 | 2.0 | 0.00 | 0.00 | 0.00 | 71 | 1015.1 |
| 20260506110018 | 31 | 306 | 1.0 | 3.0 | 0.00 | 0.00 | 0.00 | 71 | 1015.1 |
| 20260506105507 | 31 | 306 | 2.0 | 3.0 | 0.00 | 0.00 | 0.00 | 71 | 1015.1 |
| 20260506105005 | 31 | 302 | 3.0 | 3.0 | 0.00 | 0.00 | 0.00 | 71 | 1015.0 |
| 20260506104521 | 31 | 289 | 0.0 | 1.0 | 0.00 | 0.00 | 0.00 | 72 | 1014.9 |
| 20260506104008 | 30 | 289 | 0.0 | 2.0 | 0.00 | 0.00 | 0.00 | 73 | 1014.9 |
| 20260506103502 | 30 | 289 | 0.0 | 2.0 | 0.00 | 0.00 | 0.00 | 72 | 1014.9 |
| 20260506103020 | 30 | 289 | 1.0 | 3.0 | 0.00 | 0.00 | 0.00 | 72 | 1015.0 |
| 20260506102509 | 30 | 268 | 2.0 | 3.0 | 0.00 | 0.00 | 0.00 | 72 | 1015.0 |
| 20260506102006 | 30 | 286 | 1.0 | 2.0 | 0.00 | 0.00 | 0.00 | 73 | 1015.0 |
| 20260506101542 | 29 | 279 | 1.0 | 2.0 | 0.00 | 0.00 | 0.00 | 72 | 1015.0 |
| 20260506101010 | 29 | 271 | 1.0 | 2.0 | 0.00 | 0.00 | 0.00 | 71 | 1014.9 |
| 20260506100503 | 29 | 254 | 2.0 | 2.0 | 0.00 | 0.00 | 0.00 | 72 | 1015.0 |
| 20260506100022 | 29 | 275 | 2.0 | 2.0 | 0.00 | 0.00 | 0.00 | 72 | 1014.9 |
| 20260506095512 | 29 | 314 | 1.0 | 2.0 | 0.00 | 0.00 | 0.00 | 72 | 1014.6 |
| 20260506095006 | 29 | 314 | 1.0 | 2.0 | 0.00 | 0.00 | 0.00 | 72 | 1014.4 |
| 20260506094523 | 29 | 314 | 2.0 | 2.0 | 0.00 | 0.00 | 0.00 | 71 | 1014.5 |
| 20260506094007 | 29 | 314 | 0.0 | 3.0 | 0.00 | 0.00 | 0.00 | 71 | 1014.5 |
| 20260506093512 | 28 | 314 | 2.0 | 3.0 | 0.00 | 0.00 | 0.00 | 72 | 1014.4 |
| 20260506093026 | 28 | 277 | 2.0 | 3.0 | 0.00 | 0.00 | 0.00 | 72 | 1014.4 |
| 20260506092508 | 28 | 281 | 2.0 | 4.0 | 0.00 | 0.00 | 0.00 | 72 | 1014.5 |
| 20260506092007 | 28 | 306 | 3.0 | 5.0 | 0.00 | 0.00 | 0.00 | 71 | 1014.6 |
| 20260506091528 | 29 | 314 | 2.0 | 6.0 | 0.00 | 0.00 | 0.00 | 70 | 1014.6 |
| 20260506091010 | 29 | 320 | 3.0 | 6.0 | 0.00 | 0.00 | 0.00 | 70 | 1014.5 |
| 20260506090506 | 29 | 274 | 3.0 | 3.0 | 0.00 | 0.00 | 0.00 | 71 | 1014.2 |
| 20260506090025 | 29 | 244 | 2.0 | 3.0 | 0.00 | 0.00 | 0.00 | 72 | 1014.1 |
| 20260506085503 | 29 | 232 | 2.0 | 3.0 | 0.00 | 0.00 | 0.00 | 72 | 1014.0 |
| 20260506085009 | 29 | 346 | 0.0 | 0.0 | 0.00 | 0.00 | 0.00 | 72 | 1013.7 |
| 20260506084529 | 29 | 346 | 0.0 | 0.0 | 0.00 | 0.00 | 0.00 | 71 | 1013.7 |
| 20260506084003 | 29 | 346 | 0.0 | 2.0 | 0.00 | 0.00 | 0.00 | 72 | 1013.7 |
| 20260506083507 | 29 | 346 | 1.0 | 4.0 | 0.00 | 0.00 | 0.00 | 72 | 1013.7 |
| 20260506083026 | 28 | 346 | 2.0 | 4.0 | 0.00 | 0.00 | 0.00 | 72 | 1013.8 |
| 20260506082503 | 28 | 352 | 3.0 | 3.0 | 0.00 | 0.00 | 0.00 | 72 | 1014.0 |
| 20260506082009 | 29 | 352 | 3.0 | 3.0 | 0.00 | 0.00 | 0.00 | 72 | 1014.0 |
| 20260506081526 | 29 | 308 | 0.0 | 4.0 | 0.00 | 0.00 | 0.00 | 72 | 1014.1 |
| 20260506081008 | 29 | 308 | 1.0 | 4.0 | 0.00 | 0.00 | 0.00 | 72 | 1014.1 |
| 20260506080507 | 29 | 298 | 2.0 | 3.0 | 0.00 | 0.00 | 0.00 | 72 | 1014.2 |
| 20260506073507 | 30 | 301 | 2.0 | 3.0 | 0.00 | 0.00 | 0.00 | 69 | 1014.0 |
| 20260506073027 | 31 | 333 | 2.0 | 2.0 | 0.00 | 0.00 | 0.00 | 69 | 1013.9 |
| 20260506072512 | 31 | 324 | 1.0 | 2.0 | 0.00 | 0.00 | 0.00 | 67 | 1013.7 |
| 20260506072008 | 31 | 324 | 1.0 | 3.0 | 0.00 | 0.00 | 0.00 | 67 | 1013.7 |
| 20260506071528 | 31 | 324 | 1.0 | 4.0 | 0.00 | 0.00 | 0.00 | 66 | 1013.8 |
| 20260506071008 | 31 | 304 | 2.0 | 4.0 | 0.00 | 0.00 | 0.00 | 65 | 1013.8 |
| 20260506070503 | 32 | 264 | 4.0 | 4.0 | 0.00 | 0.00 | 0.00 | 64 | 1013.9 |
| 20260506062503 | 33 | 324 | 0.0 | 2.0 | 0.00 | 0.00 | 0.00 | 64 | 1013.8 |
| 20260506062002 | 33 | 324 | 0.0 | 3.0 | 0.00 | 0.00 | 0.00 | 64 | 1013.9 |
| 20260506061516 | 34 | 324 | 0.0 | 3.0 | 0.00 | 0.00 | 0.00 | 63 | 1013.9 |
| 20260506061002 | 34 | 306 | 1.0 | 2.0 | 0.00 | 0.00 | 0.00 | 63 | 1013.9 |
| 20260506060506 | 34 | 317 | 1.0 | 3.0 | 0.00 | 0.00 | 0.00 | 62 | 1013.9 |
| 20260506051002 | 36 | 333 | 3.0 | 4.0 | 0.00 | 0.00 | 0.00 | 59 | 1013.5 |
| 20260506050504 | 36 | 329 | 2.0 | 4.0 | 0.00 | 0.00 | 0.00 | 58 | 1013.5 |
| 20260506045005 | 36 | 328 | 3.0 | 4.0 | 0.00 | 0.00 | 0.00 | 57 | 1013.3 |
| 20260506044506 | 36 | 338 | 3.0 | 5.0 | 0.00 | 0.00 | 0.00 | 57 | 1013.2 |
| 20260506044006 | 36 | 338 | 3.0 | 6.0 | 0.00 | 0.00 | 0.00 | 57 | 1013.2 |
| 20260506043503 | 36 | 338 | 5.0 | 6.0 | 0.00 | 0.00 | 0.00 | 56 | 1013.2 |
| 20260506043002 | 37 | 348 | 6.0 | 6.0 | 0.00 | 0.00 | 0.00 | 55 | 1013.2 |
| 20260506042504 | 37 | 342 | 4.0 | 5.0 | 0.00 | 0.00 | 0.00 | 55 | 1013.3 |
| 20260506042007 | 38 | 338 | 4.0 | 6.0 | 0.00 | 0.00 | 0.00 | 54 | 1013.3 |
| 20260506041503 | 38 | 328 | 4.0 | 6.0 | 0.00 | 0.00 | 0.00 | 53 | 1013.4 |
| 20260506041004 | 38 | 330 | 5.0 | 8.0 | 0.00 | 0.00 | 0.00 | 52 | 1013.4 |
| 20260506040508 | 39 | 340 | 4.0 | 9.0 | 0.00 | 0.00 | 0.00 | 51 | 1013.5 |
| 20260506040004 | 40 | 348 | 7.0 | 10.0 | 0.00 | 0.00 | 0.00 | 50 | 1013.5 |
| 20260506035504 | 40 | 349 | 7.0 | 9.0 | 0.00 | 0.00 | 0.00 | 50 | 1013.4 |
| 20260506035008 | 41 | 348 | 8.0 | 11.0 | 0.00 | 0.00 | 0.00 | 49 | 1013.3 |
| 20260506034504 | 42 | 349 | 9.0 | 11.0 | 0.00 | 0.00 | 0.00 | 48 | 1013.3 |
| 20260506034003 | 42 | 352 | 10.0 | 12.0 | 0.00 | 0.00 | 0.00 | 47 | 1013.3 |
| 20260506033506 | 43 | 352 | 9.0 | 13.0 | 0.00 | 0.00 | 0.00 | 46 | 1013.3 |